CAPE
1927 1465 975 576 265 46 0 7 1 0 0 52 25 6 0 0 0 0 0 0 0 0 30 0 0 0 0 0 0 0 0 0 0 0 0 0 0 0 0 0 0 0 0
1813 1442 975 560 435 174 22 0 0 10 67 66 31 0 0 0 0 0 0 0 0 0 5 34 2 0 0 0 0 0 0 0 0 0 0 0 0 0 0 0 0 0 0
1642 1378 1035 654 395 250 240 213 84 149 154 61 7 0 0 0 0 0 0 0 0 0 0 0 0 0 0 0 0 0 0 1 0 0 0 0 1 0 0 0 11 1 19
1628 1376 1061 569 550 556 408 341 441 298 245 33 11 0 0 0 0 0 0 2 3 1 0 0 0 0 0 0 0 0 0 0 0 0 0 0 9 26 16 17 29 49 28
1036 591 986 660 592 708 637 451 344 208 77 3 0 0 5 69 75 89 33 7 5 1 1 0 0 0 0 2 0 0 0 0 0 5 33 27 34 39 47 19 25 8 33
675 721 535 479 426 327 264 225 84 46 0 0 15 57 98 62 23 21 12 7 7 0 0 0 4 2 0 0 0 0 0 0 0 0 9 30 94 90 33 13 0 0 0
256 203 48 115 66 51 31 7 2 4 4 28 82 35 11 10 3 0 0 0 3 0 0 0 0 0 0 0 0 0 0 0 0 0 0 0 0 0 100 16 96 0 0
164 129 84 33 17 3 1 3 43 42 14 28 36 64 29 0 0 0 0 0 2 5 8 4 1 2 0 0 0 0 0 0 0 0 0 0 0 0 0 26 50 77 48
270 165 88 25 24 7 21 5 51 74 68 37 22 2 0 0 0 0 0 0 0 0 0 0 8 13 4 0 0 0 1 2 1 0 0 0 0 0 8 18 21 7 0
190 180 81 23 5 24 27 17 154 73 9 1 0 0 0 0 0 0 0 0 0 0 1 8 15 0 0 0 0 0 0 0 1 0 1 0 0 0 0 0 0 0 0
377 261 114 50 8 22 127 11 22 8 2 0 0 0 0 0 0 0 0 0 0 0 9 26 30 4 0 0 0 29 1 142 187 167 141 63 81 52 55 33 0 0 0
363 95 180 230 305 231 153 20 0 0 16 1 4 18 12 10 0 0 0 0 0 0 0 14 83 10 7 0 0 0 0 0 3 19 46 36 96 186 275 221 282 407 258
443 329 397 222 180 41 9 0 5 7 13 22 7 0 0 1 16 0 0 0 0 0 0 0 0 11 4 1 0 0 0 0 0 0 0 0 0 47 253 285 398 529 435
213 179 83 11 2 6 3 24 21 18 0 0 17 32 37 33 115 122 0 0 0 0 0 0 0 0 0 0 0 0 0 0 0 0 0 0 173 263 184 137 29 31 67
161 43 6 5 1 0 6 8 3 1 9 18 9 6 36 37 16 42 55 9 0 0 0 0 0 0 0 0 0 0 0 11 6 7 10 261 306 293 109 56 2 15 14
83 23 0 0 0 0 0 0 1 2 0 0 0 0 2 13 0 0 0 6 0 0 0 0 0 22 35 66 130 351 343 351 160 177 307 568 480 184 108 8 9 6 4
121 0 0 0 16 22 5 9 12 0 0 0 0 0 0 0 0 0 0 0 0 0 0 1 136 368 325 287 345 327 413 616 447 755 686 445 375 213 4 0 0 0 0
298 192 152 91 11 5 50 20 26 29 22 3 0 0 0 0 0 0 0 0 0 0 0 0 0 39 56 52 10 31 224 113 839 692 461 239 65 0 0 0 0 0 0
633 387 215 62 65 32 15 50 47 79 52 97 76 4 0 0 0 0 0 0 0 0 0 0 0 0 18 164 147 254 426 382 211 658 321 28 0 0 0 0 0 0 0
625 469 253 310 92 6 2 9 75 151 198 66 12 0 178 5 0 0 0 0 0 0 0 0 43 308 600 517 416 37 0 39 772 320 15 0 0 0 0 0 0 0 0
749 628 567 565 423 465 198 9 22 36 21 146 158 56 67 86 36 18 0 0 0 0 0 19 136 364 683 767 908 461 104 380 616 310 92 0 0 0 0 0 0 0 0
934 589 651 558 510 467 128 7 163 204 241 286 178 73 0 0 21 101 212 88 51 0 0 393 489 639 798 886 1021 801 846 817 554 296 49 0 0 0 0 0 0 0 0
52 199 84 230 668 635 397 120 77 92 111 90 118 81 99 7 94 145 170 787 492 266 475 637 756 624 543 435 194 232 10 329 803 597 234 1 0 0 0 0 0 0 0
79 6 16 24 53 231 366 378 396 230 264 273 427 445 316 15 0 111 689 615 456 397 272 265 160 229 125 1 0 0 428 595 663 609 331 2 0 0 0 0 0 0 0
274 7 22 54 179 174 117 168 109 454 402 364 30 13 81 240 379 455 444 175 255 293 71 217 148 84 93 43 2 4 0 6 518 426 276 57 0 0 0 0 0 0 0
157 215 296 348 309 42 0 240 32 23 373 352 175 56 60 22 91 199 138 97 156 100 165 54 65 21 129 151 115 2 2 28 0 2 0 0 0 0 0 0 0 0 0
CIN
-37 -75 -99 -157 -244 -335 -38 -305 -213 0 0 -114 -128 -99 0 0 0 0 0 0 0 0 -80 0 0 0 0 0 0 0 0 0 0 0 0 0 0 0 0 0 0 0 0
-22 -76 -106 -149 -180 -297 -297 0 0 -292 -105 -50 -72 0 -10 0 0 0 0 0 0 0 -121 -53 -80 0 0 0 0 0 0 0 0 0 0 0 0 0 0 0 0 0 0
-68 -38 -44 -48 -171 -258 -231 -240 -278 -176 -118 -137 -96 0 0 0 0 0 0 0 0 0 0 0 0 0 0 0 0 0 0 -7 0 0 0 0 -5 0 0 0 -36 -9 -34
-7 -3 -56 -91 -144 -158 -187 -184 -111 -147 -118 -187 -201 0 0 -1 0 0 -4 -5 -6 -1 0 0 0 0 0 0 0 0 0 0 0 0 0 -2 -22 -24 -23 -15 -14 -26 -18
-108 -8 -15 -33 -85 -69 -85 -137 -180 -222 -240 -316 0 0 -122 -70 -40 -28 -5 -6 -7 -3 -1 0 0 0 0 -3 0 0 0 0 0 -4 -9 -7 -8 -18 -9 -11 -10 -23 -17
-74 -71 -119 -107 -109 -135 -199 -242 -287 -290 0 0 -197 -104 -61 -36 -31 -16 -8 -11 -9 0 0 0 -8 -10 0 0 0 0 0 0 0 0 -41 -30 -37 -51 -25 -24 0 0 0
-249 -203 -208 -226 -220 -229 -285 -332 -155 -350 -189 -140 -129 -102 -98 -68 -13 -9 0 -1 -3 0 0 0 0 0 -7 0 0 0 0 0 0 0 0 0 0 0 -45 -52 -30 -1 0
-244 -295 -320 -308 -292 -62 -46 -100 -198 -167 -198 -122 -140 -55 -81 0 0 0 0 0 -1 -2 -1 -3 -1 -2 0 -2 -3 0 0 0 0 0 0 0 0 0 0 -59 -27 -61 -89
-172 -196 -186 -189 -218 -209 -174 -177 -109 -124 -102 -121 -163 -119 0 0 0 0 0 0 0 0 0 0 -2 -1 -3 -1 -1 0 -1 -1 -2 0 0 0 0 0 -22 -9 -12 -20 0
-103 -74 -103 -152 -176 -137 -97 -114 -42 -90 -168 -3 0 0 0 0 0 0 0 0 0 0 -1 -7 -8 0 0 0 0 -10 0 0 -13 0 -9 0 0 0 0 0 0 0 0
-49 -67 -94 -96 -100 -120 -47 -115 -110 -153 -2 0 0 0 0 -1 0 0 0 0 0 0 -6 -9 -14 -17 0 0 0 -83 -2 -34 -13 -20 -28 -68 -84 -25 -129 -110 -8 0 0
-48 -108 -66 -47 -22 -25 -25 -77 -8 0 -101 -6 -1 -4 -4 -50 0 0 0 0 0 0 0 -36 -39 -35 -45 0 0 0 0 0 -23 -34 -98 -95 -60 -22 -19 -74 -54 -56 -69
-26 -41 -30 -26 -25 -57 -109 -1 -31 -7 -11 -4 -3 0 0 -11 -17 0 0 0 0 0 0 0 0 -59 -73 -64 0 0 0 0 0 0 0 0 -3 -50 -20 -17 -15 -17 -22
-36 -43 -61 -100 -15 -25 -20 -117 -88 -2 -1 0 -3 -2 -7 -10 -41 -46 -2 0 0 0 0 0 0 0 0 0 0 0 0 0 0 0 0 0 -18 -13 -13 -30 -92 -83 -98
-49 -73 -44 -1 -1 0 -2 -1 -5 -2 -9 -6 -12 -7 -3 -8 -74 -98 -61 -76 0 0 0 0 0 0 0 0 0 0 0 -126 -111 -85 -68 -39 -26 -10 -31 -61 -8 -16 -9
-43 -82 0 0 0 0 0 0 -3 -3 -6 0 0 0 -7 -37 -74 0 0 -111 -26 0 0 0 0 -47 -69 -46 -52 -34 -32 -39 -72 -69 -51 -30 -16 -25 -45 -41 -4 -6 -5
-29 0 0 0 -5 -49 -26 -21 -22 0 0 0 0 0 0 0 0 0 0 0 0 0 0 -2 -27 -10 -7 -10 -9 -13 -14 -19 -39 -21 -22 -27 -24 -20 -3 0 0 0 0
-33 -20 -7 -11 -8 -4 -18 -8 -21 -20 -26 -9 0 0 0 0 0 0 0 0 0 0 0 0 0 -50 -57 -50 -52 -80 -41 -117 -9 -18 -19 -27 -58 0 0 0 0 0 0
-11 -13 -12 -12 -17 -14 -10 -6 -11 -44 -40 -48 -54 -13 0 0 0 0 0 0 0 0 0 0 0 0 -74 -53 -51 -83 -55 -33 -86 -8 -27 -54 0 0 0 0 0 0 0
-7 -5 -6 -2 -4 -10 -4 -8 -14 -16 -15 -48 -31 -3 -13 -63 0 0 0 0 0 0 0 0 -64 -41 -44 -66 -72 -155 0 -39 -9 -36 -89 0 0 0 0 0 0 0 0
-15 -20 -11 -9 -12 -7 -2 -6 -6 -12 -28 -5 -23 -32 -31 -32 -122 -78 0 0 0 0 -5 -128 -64 -47 -30 -22 -25 -70 -91 -47 -18 -35 -77 0 0 0 0 0 0 0 0
-14 -21 -27 -38 -31 -12 -6 -18 -5 -9 -11 -10 -39 -59 0 -7 -121 -51 -45 -76 -92 0 0 -56 -41 -31 -12 -9 -25 -32 -26 -30 -28 -34 -48 0 0 0 0 0 0 0 0
-4 -10 -24 -6 -31 -36 -15 -23 -24 -35 -35 -37 -45 -37 -61 -52 -100 -59 -64 -4 -30 -53 -34 -26 -8 -26 -60 -48 -58 -108 -87 -42 -15 -30 -36 -33 0 0 0 0 0 0 0
-1 -1 -14 -5 -13 -9 -15 -11 -12 -29 -37 -33 -57 -62 -96 -140 0 -77 -39 -42 -3 -6 -20 -19 -47 -85 -39 -7 0 0 -106 -51 -34 -38 -44 -47 0 0 0 0 0 -4 0
-5 -10 -7 -7 -3 -33 -63 -3 -6 -17 -48 -57 -110 -84 -103 -92 -55 -38 -52 -36 -30 -17 -82 -43 -81 -98 -125 -104 -9 -76 0 -31 -41 -46 -48 -43 0 0 0 0 0 0 0
-7 -3 -6 -10 -22 -29 -18 -32 -4 -5 -17 -68 -83 -104 -94 -99 -54 -26 -40 -47 -24 -50 -50 -61 -77 -149 -129 -62 -58 -6 -3 -23 0 -79 0 0 0 0 0 0 0 0 0
Wind_Speed
9 7 5 7 5 8 2 8 11 11 10 15 12 8 9 10 10 8 7 7 8 9 9 15 16 16 16 16 16 17 16 16 18 15 13 13 16 14 12 14 14 11 12
9 7 6 8 9 5 3 5 8 7 6 6 5 10 10 9 7 7 7 7 7 10 13 15 16 17 18 17 16 15 15 15 15 16 11 12 12 13 13 14 14 17 7
10 9 8 8 6 5 1 4 4 5 3 4 4 4 5 7 8 8 8 9 9 9 11 12 13 13 14 17 14 14 13 14 12 15 16 12 11 10 10 10 12 12 14
11 12 11 9 8 6 3 2 1 2 3 4 3 4 7 8 5 5 6 6 6 8 10 10 11 12 12 13 14 14 13 13 13 14 13 13 5 6 7 13 14 8 12
20 15 6 6 5 6 3 2 2 1 2 3 3 4 5 5 7 7 7 7 7 8 8 9 8 8 10 10 11 14 16 13 14 14 13 10 12 9 10 14 18 20 18
19 12 12 10 9 6 4 3 4 4 4 2 2 4 5 8 7 5 7 7 6 6 6 6 10 4 5 5 8 11 13 15 16 18 18 17 17 18 17 18 19 20 20
15 9 13 13 10 7 4 5 5 4 1 1 2 3 6 9 7 1 5 9 4 4 3 3 4 3 3 4 4 6 8 7 8 13 18 25 25 20 22 19 18 18 18
10 9 6 4 4 6 8 6 4 3 5 3 4 4 6 4 3 3 3 10 11 4 3 2 5 11 5 4 4 4 4 5 3 3 6 22 17 14 5 4 3 8 12
10 8 6 5 8 8 5 4 3 3 4 4 4 6 3 5 2 2 3 7 10 10 7 7 5 3 3 3 6 7 13 19 17 7 10 9 7 10 3 9 0 9 19
7 7 5 7 6 3 3 3 4 3 3 3 4 3 2 3 1 1 2 7 7 5 1 1 3 0 3 2 3 7 10 12 20 26 8 9 10 10 13 3 2 3 4
8 8 8 8 9 11 7 4 3 3 5 5 3 3 2 2 1 2 1 4 8 10 8 6 2 7 5 0 2 7 6 13 20 24 25 20 9 3 7 4 5 5 6
6 6 7 7 8 5 4 4 4 5 6 3 4 2 2 3 1 6 6 5 4 11 23 24 18 17 9 6 2 3 2 10 24 27 29 31 30 17 7 8 6 6 6
6 7 6 6 6 5 4 4 4 4 3 2 2 1 0 2 3 5 6 7 8 8 18 22 22 26 24 13 11 10 13 18 20 22 23 25 26 26 28 20 15 10 10
5 6 6 5 4 4 4 3 2 1 2 1 0 1 1 2 4 4 5 6 6 7 10 17 24 24 20 19 20 15 13 14 13 15 17 15 17 27 26 21 21 21 20
4 5 4 4 4 2 1 1 2 1 3 4 2 4 8 11 12 11 6 6 6 6 8 12 18 22 21 18 19 18 19 17 14 10 12 14 19 20 23 23 22 20 20
3 3 3 3 4 2 1 2 2 4 7 10 9 10 13 12 14 14 13 8 9 6 9 10 14 17 18 21 26 23 18 18 12 9 11 12 19 21 19 18 18 18 19
6 3 2 3 1 3 1 2 5 3 3 5 5 5 7 10 8 8 9 10 12 14 15 15 17 20 25 27 29 30 25 18 9 8 12 16 16 20 22 23 22 24 26
9 10 2 4 1 9 7 6 9 9 9 5 7 9 9 9 8 9 11 14 18 21 23 24 24 23 24 28 34 34 28 35 16 18 15 15 20 23 23 22 22 24 24
7 8 5 5 7 10 11 12 8 8 9 18 13 7 11 12 9 11 11 13 15 15 16 15 16 20 22 25 28 31 29 28 16 18 17 19 18 18 19 21 23 24 25
8 10 8 5 6 6 10 14 12 9 10 11 14 13 14 7 9 10 10 9 10 12 12 13 12 16 15 16 15 15 22 19 15 15 18 19 21 21 21 21 21 22 21
3 6 11 10 9 8 8 9 10 12 16 16 16 21 11 18 12 13 12 11 11 16 17 14 14 12 16 25 25 21 27 23 17 18 18 17 17 19 20 21 20 20 22
5 5 5 7 10 9 9 11 14 15 16 16 21 15 10 13 12 13 11 13 12 11 12 15 14 13 13 18 18 18 20 19 19 18 17 17 18 19 20 20 21 21 21
6 6 8 9 10 12 10 11 14 17 17 17 17 17 16 12 12 12 14 13 16 14 12 13 15 16 17 23 41 38 31 25 20 19 19 20 20 20 20 21 21 22 22
9 15 9 7 9 7 9 10 11 11 11 11 12 16 18 15 12 15 17 17 23 14 15 15 17 23 23 22 17 16 21 25 21 20 21 22 23 23 23 23 22 19 19
4 4 5 7 14 25 36 15 12 13 13 12 12 10 12 14 15 18 17 9 26 19 19 17 18 28 27 39 52 20 46 30 22 19 21 23 24 24 23 21 20 19 18
10 7 6 8 11 15 10 11 17 21 11 12 12 12 12 14 14 11 9 13 17 28 20 25 32 32 28 20 26 20 32 41 25 26 24 26 27 24 21 21 20 22 23
Wind_Direction
278 272 233 183 165 164 50 24 110 89 90 144 134 90 91 100 115 108 42 47 44 72 17 293 295 310 317 322 326 328 334 332 317 332 357 357 355 356 359 354 350 353 352
273 263 226 191 176 172 132 97 112 94 92 107 57 117 107 95 41 352 351 347 347 329 312 303 300 303 306 315 325 325 331 334 333 330 350 354 358 3 358 356 357 344 19
257 238 238 216 219 211 189 145 105 83 80 55 88 88 50 359 345 329 330 333 333 335 324 321 320 322 320 318 326 331 337 341 348 339 339 350 359 9 10 13 2 4 353
270 262 248 224 232 273 290 252 255 15 46 7 24 8 337 330 341 347 355 359 358 349 338 333 335 331 328 332 328 331 335 340 343 342 340 345 12 18 27 1 357 11 1
293 257 220 237 256 266 255 263 275 122 79 354 335 331 329 323 322 325 338 336 344 344 346 341 345 350 344 342 338 330 331 339 334 337 337 356 356 26 14 5 352 340 351
309 310 296 286 292 288 292 302 310 310 323 308 304 316 321 316 319 343 332 340 344 347 349 354 344 24 19 10 354 339 334 327 321 318 318 329 335 323 336 334 335 337 334
320 330 305 294 305 313 329 330 325 324 80 73 338 336 319 311 315 17 336 326 19 26 40 40 30 78 138 29 39 7 347 343 338 326 311 281 284 307 307 328 339 340 343
344 348 353 328 327 317 323 330 2 52 81 79 344 340 333 348 19 351 331 315 321 8 26 49 351 334 41 53 46 23 11 8 48 60 149 214 206 195 154 36 47 6 352
354 356 12 349 302 315 335 353 25 38 53 79 5 331 359 340 14 2 318 309 317 320 325 325 341 360 350 350 343 338 321 301 304 168 169 171 166 177 56 350 175 353 334
23 24 53 95 78 50 37 0 346 36 42 35 360 29 68 343 139 6 314 311 313 319 173 161 167 235 334 35 358 343 335 326 295 268 174 186 192 197 206 234 289 277 287
24 45 65 78 102 123 105 53 14 38 0 342 35 96 118 330 230 190 189 297 302 307 306 299 260 174 171 346 350 329 338 323 300 288 288 310 330 227 218 253 248 285 298
35 36 57 79 90 70 46 38 355 341 340 49 10 33 355 324 212 175 191 203 256 292 288 288 308 310 199 197 260 300 296 318 292 286 284 283 292 316 295 304 270 285 294
55 57 53 61 67 63 32 356 345 91 67 62 74 85 214 216 226 208 202 210 215 279 289 286 288 287 291 290 296 303 306 301 301 300 303 305 308 310 311 323 325 319 319
19 25 37 47 84 83 79 90 37 72 63 75 217 278 249 292 223 255 228 228 228 280 285 288 283 287 294 293 294 299 298 300 302 305 311 319 321 312 313 323 324 322 323
75 59 55 76 95 64 52 75 119 135 320 309 282 337 329 326 324 311 240 258 269 268 287 293 292 289 291 292 293 295 296 299 299 296 305 314 319 320 319 321 320 318 317
99 82 62 110 133 126 28 351 215 278 317 320 311 318 312 328 329 332 334 303 303 291 298 288 291 292 291 294 290 293 295 295 285 283 292 300 313 319 321 325 325 321 320
154 134 106 146 312 192 263 250 321 309 243 253 279 281 265 282 290 308 315 314 304 300 296 292 291 291 291 290 288 289 293 297 263 270 298 307 314 318 317 316 316 315 314
180 181 185 327 250 321 307 286 308 312 317 295 281 238 227 219 228 257 271 290 295 294 291 289 288 288 288 287 283 285 294 288 288 300 299 303 308 312 315 315 315 315 315
191 196 209 219 301 314 314 316 295 297 307 314 325 302 232 232 287 301 299 284 277 279 282 280 281 283 284 286 286 288 295 296 276 289 293 301 303 306 307 309 312 313 312
198 200 206 253 260 264 299 305 307 297 299 309 311 298 320 304 272 258 279 262 251 248 248 249 256 283 278 274 268 258 296 289 256 280 294 299 300 301 303 305 308 310 311
213 231 229 240 240 256 273 281 285 295 302 301 310 308 286 300 294 291 274 247 233 223 228 239 235 254 278 289 289 287 289 294 266 289 292 290 289 291 295 298 301 304 308
220 218 220 230 230 240 264 288 301 300 300 307 303 301 265 258 276 278 250 237 234 235 233 232 234 239 260 290 281 278 284 278 280 283 281 281 284 287 289 292 297 300 301
295 272 265 265 240 230 262 284 288 292 292 292 294 282 285 281 264 251 238 245 237 250 249 244 233 289 295 304 295 295 292 245 266 265 270 277 279 284 286 289 292 294 296
305 312 307 296 308 278 260 262 265 276 284 285 282 300 244 239 251 242 236 240 229 256 253 256 291 295 275 285 268 274 280 240 254 266 270 278 282 283 285 284 286 292 300
245 270 228 311 317 316 296 249 271 283 260 261 278 285 261 247 243 246 232 262 297 288 293 284 289 299 298 291 265 299 244 242 249 267 276 277 282 281 279 276 274 282 298
223 236 283 292 311 331 248 279 316 313 285 265 256 252 259 235 238 288 278 284 292 288 299 305 307 313 312 303 307 269 319 306 292 292 292 298 292 296 291 285 284 283 295